Regional Weather Roundup
Issued by NWS Newport/Morehead, NC

Current Version | Previous Version | Text Only | Print | Product List | Glossary On
Versions: 1 2 3 4 5 6 7 8 9 10 11 12 13 14 15 16 17 18 19 20 21 22 23 24 25 26 27 28 29 30 31 32 33 34 35 36 37 38 39 40 41 42 43 44 45 46 47 48 49 50
000 ASUS42 KMHX 041425 RWRMHX WEATHER ROUNDUP FOR EASTERN NORTH CAROLINA NATIONAL WEATHER SERVICE NEWPORT/MOREHEAD CITY NC 1000 AM EDT TUE AUG 04 2015 NOTE: "FAIR" INDICATES FEW OR NO CLOUDS BELOW 12,000 FEET WITH NO SIGNIFICANT WEATHER AND/OR OBSTRUCTIONS TO VISIBILITY NCZ015>017-031-032-045>047-102-103-041500- NORTH COAST CITY SKY/WX TMP DP RH WIND PRES REMARKS EDENTON N/A 85 75 70 SW10 30.02R ELIZABETH CITY MOSUNNY 84 77 79 SW13 30.01S KITTY HAWK MOSUNNY 86 77 75 SW9 30.01S MANTEO LGT RAIN 80 72 75 SW12 30.03R $$ NCZ045>047-081-094-103-104-041500- CENTRAL COAST CITY SKY/WX TMP DP RH WIND PRES REMARKS FRISCO PTSUNNY 81 76 84 SW6 30.04S SWANQUARTER N/A 84 N/A N/A SW9 30.00S $$ NCZ095-097-098-100-101-041500- SOUTHERN COAST CITY SKY/WX TMP DP RH WIND PRES REMARKS BEAUFORT CLOUDY 83 78 85 S12 30.03R CEDAR ISLAND N/A 82 N/A N/A S7 30.06S JACKSONVILLE CLOUDY 80 75 84 S9 30.01R THUNDER PINEY ISLAND PTSUNNY N/A N/A N/A S8 30.03R WILMINGTON CLOUDY 80 76 87 S12G21 29.99R $$ NCZ011>013-027>030-043-044-078>080-089-090>093-098-041500- COASTAL PLAIN CITY SKY/WX TMP DP RH WIND PRES REMARKS AHOSKIE SUNNY 83 74 75 CALM 30.00S CLINTON MOSUNNY 83 76 78 S7 30.02R ELIZABETHTOWN LGT RAIN 78 77 95 E3 30.01R GOLDSBORO MOSUNNY 84 75 75 S8 29.99R GREENVILLE MOSUNNY 86 75 70 SW8 30.03S HAVELOCK LGT RAIN 81 76 84 S8 30.03R KENANSVILLE PTSUNNY N/A N/A N/A SE3 30.03R KINSTON MOSUNNY 84 75 74 S9 30.02R NEW BERN HVY RAIN 76 70 82 S14G28 30.06R VSB 3/4 RICHLANDS CLOUDY 82 72 69 S9 30.01S ROCKY MOUNT PTSUNNY 86 75 69 S12 30.02R WASHINGTON MOSUNNY 83 74 73 S7 30.02S WHITEVILLE CLOUDY 79 76 92 E5 29.98R FOG $$ AMZ130-135-150-152-154-156-158-170-250-252-270-ANZ085-086-088-633-658-670-041500- MARINE OBSERVATIONS STATION/POSITION TIME TEMP WIND PRES WAVE SWELL AIR SEA DIR/SP/G HT/PER HT/PER (UTC) (F) (DEG/KT/KT) (MB) (FT/S) (FT/S) CHESAPEAKE LIGHT 1400 78 210/ 16/ 17 1015.7 64 E VA BEACH 1350 81 81 210/ 16/ 17 1015.4 4/ 6 2/11 DUCK 1400 82 62 220/ 12/ 15 1015.5 2 E DUCK 1311 71 N/A 2/ 6 OREGON INLET 1400 81 80 200/ 16/ 19 1016.7 13E OREGON INLT 1400 82 N/A 3/ 5 2/12 HATTERAS CG 1400 81 78 200/ 4/ 6 1016.8 DIAMOND BUOY 1350 79 84 170/ 10/ 16 1017.7 4/ 4 3/ 7 CAPE LOOKOUT 1400 82 190/ 16/ 19 1016.6 BEAUFORT LAB 1400 82 79 190/ 13/ 18 1016.0 30 SE NEW RVR IN NOT AVBL 27 SE WRIGHTSVLE 1400 78 82 180/ 25/ 31 N/A 5 SE WRIGHTSVLE 1308 82 82 180/ 19/ 27 1015.3 225 S CAPE HAT 1350 82 81 200/ 14/ 16 1019.3 5/ 7 3/ 7 41 SE CHARLESTON 1350 81 83 240/ 17/ 19 1013.2 7/ 7 $$

USA.gov is the U.S. government's official web portal to all federal, state and local government web resources and services.